Date String (YYYY-MM-DD hh:mm:ss) UTC,Instrument flags,absolute air pressure of the measurement (hPa),sample flow rate (lpm),inlet stack bypass flow (lpm),air temperature of the measurement (°C),ambient temperature measured by the external sensor (°C),aerosol sample conditioner tube jacket temperature (°C),OPC LED temperature (°C),internal box temperature (°C),relative humidity of the measurement (%),span deviation,mass concentration of particles derived from Lorenz-Mie calculation of OPC scattering (μg/m³),mass concentration of particles derived from Lorenz-Mie calculation of OPC scattering (μg/m³),mass concentration of particles derived from Lorenz-Mie calculation of OPC scattering (μg/m³)
DateTimeUTC,F1_M11,P_M11,Q1_M11,Q2_M11,T1_M11,T2_M11,T3_M11,T4_M11,T5_M11,U1_M11,ZSPAN_M11,X0_M11,X2_M11,X1_M11
2023-07-08 21:00:00,SystemResetWarning,0829.3,4.98,000.00,031.6,026.0,000.0,039.1,031.5,35.0,0000.9,0013.58,0007.07,0006.46
2023-07-08 21:01:00,SystemResetWarning,0829.2,5.04,000.00,031.7,025.8,000.0,039.1,031.3,33.8,0000.6,0013.01,0007.01,0006.43
2023-07-08 21:02:00,SystemResetWarning,0829.2,4.97,000.00,031.6,026.0,000.0,039.1,031.1,34.1,0000.3,0012.33,0006.96,0006.41
2023-07-08 21:03:00,SystemResetWarning,0829.1,5.03,000.00,031.6,026.3,000.0,039.2,031.2,34.2,0000.2,0012.29,0006.93,0006.38
2023-07-08 21:04:00,SystemResetWarning,0829.1,5.00,000.00,031.6,026.7,000.0,039.3,031.2,33.8,-000.5,0012.28,0006.92,0006.35
2023-07-08 21:05:00,SystemResetWarning,0829.0,4.99,000.00,031.6,027.0,000.0,039.3,031.3,34.8,-000.5,0012.12,0006.88,0006.32
2023-07-08 21:06:00,SystemResetWarning,0829.1,5.01,000.00,031.6,027.3,000.0,039.3,031.4,33.6,-000.9,0012.46,0006.83,0006.28
2023-07-08 21:07:00,SystemResetWarning,0829.3,4.99,000.00,031.6,027.6,000.0,039.4,031.4,33.1,-001.2,0012.92,0006.77,0006.24
2023-07-08 21:08:00,SystemResetWarning,0829.4,4.99,000.00,031.6,027.8,000.0,039.4,031.5,32.9,-001.4,0012.55,0006.71,0006.21
2023-07-08 21:09:00,SystemResetWarning,0829.5,5.00,000.00,031.7,028.0,000.0,039.5,031.5,34.7,-001.1,0012.14,0006.69,0006.19
2023-07-08 21:10:00,SystemResetWarning,0829.6,5.03,000.00,031.7,027.5,000.0,039.4,031.6,34.5,-001.1,0011.49,0006.66,0006.18
2023-07-08 21:11:00,SystemResetWarning,0829.6,4.96,000.00,031.8,026.2,000.0,039.3,031.5,34.5,-000.7,0010.73,0006.64,0006.17
2023-07-08 21:12:00,SystemResetWarning,0829.7,5.01,000.00,031.8,025.8,000.0,039.3,031.4,34.6,0000.1,0011.73,0006.64,0006.17
2023-07-08 21:13:00,SystemResetWarning,0829.7,5.01,000.00,031.7,026.0,000.0,039.3,031.2,34.7,0000.2,0011.63,0006.61,0006.17
2023-07-08 21:14:00,SystemResetWarning,0829.7,5.00,000.00,031.6,026.3,000.0,039.4,031.2,34.3,0000.5,0011.61,0006.60,0006.18
2023-07-08 21:15:00,SystemResetWarning,0829.7,5.00,000.00,031.6,026.7,000.0,039.4,031.3,34.3,0000.9,0011.58,0006.58,0006.18
2023-07-08 21:16:00,SystemResetWarning,0829.6,4.99,000.00,031.6,027.0,000.0,039.4,031.3,32.7,0000.9,0011.72,0006.64,0006.19
2023-07-08 21:17:00,SystemResetWarning,0829.6,5.00,000.00,031.5,027.3,000.0,039.5,031.4,33.0,0000.9,0011.53,0006.64,0006.18
2023-07-08 21:18:00,SystemResetWarning,0829.5,5.00,000.00,031.5,027.6,000.0,039.5,031.4,33.3,0000.4,0010.86,0006.65,0006.19
2023-07-08 21:19:00,SystemResetWarning,0829.5,5.01,000.00,031.5,027.8,000.0,039.5,031.5,34.4,0000.4,0011.32,0006.65,0006.19
2023-07-08 21:20:00,SystemResetWarning,0829.5,5.00,000.00,031.5,027.5,000.0,039.5,031.5,33.1,-000.2,0011.41,0006.64,0006.19
2023-07-08 21:21:00,SystemResetWarning,0829.4,4.98,000.00,031.5,026.2,000.0,039.3,031.4,32.7,-000.3,0011.41,0006.62,0006.17
2023-07-08 21:22:00,SystemResetWarning,0829.2,5.01,000.00,031.4,025.7,000.0,039.2,031.3,33.6,-000.7,0011.23,0006.59,0006.15
2023-07-08 21:23:00,SystemResetWarning,0829.0,5.02,000.00,031.3,025.8,000.0,039.2,031.1,28.1,-001.1,0010.20,0006.57,0006.14
2023-07-08 21:24:00,SystemResetWarning,0828.8,4.99,000.00,031.1,026.2,000.0,039.3,031.1,24.7,-000.9,0010.27,0006.58,0006.12
2023-07-08 21:25:00,SystemResetWarning,0828.7,4.99,000.00,031.0,026.6,000.0,039.3,031.1,26.2,-001.2,0010.27,0006.57,0006.11
2023-07-08 21:26:00,SystemResetWarning,0828.5,5.01,000.00,031.0,026.9,000.0,039.3,031.2,27.7,-001.6,0010.33,0006.58,0006.10
2023-07-08 21:27:00,SystemResetWarning,0828.2,5.01,000.00,031.0,027.3,000.0,039.3,031.2,31.2,-001.6,0010.65,0006.54,0006.08
2023-07-08 21:28:00,SystemResetWarning,0828.0,4.99,000.00,031.0,027.5,000.0,039.3,031.3,34.7,-001.1,0010.59,0006.54,0006.09
2023-07-08 21:29:00,SystemResetWarning,0827.8,5.03,000.00,031.0,027.7,000.0,039.2,031.4,33.2,-000.5,0010.44,0006.45,0006.00
2023-07-08 21:30:00,SystemResetWarning,0827.9,4.95,000.00,031.1,027.9,000.0,039.2,031.5,33.7,-000.4,0010.17,0006.34,0005.88
2023-07-08 21:31:00,SystemResetWarning,0827.9,5.04,000.00,031.2,027.8,000.0,039.2,031.6,34.4,-000.5,0009.89,0006.24,0005.75
2023-07-08 21:32:00,SystemResetWarning,0828.0,4.98,000.00,031.3,026.4,000.0,039.1,031.4,33.8,-000.2,0009.81,0006.16,0005.65
2023-07-08 21:33:00,SystemResetWarning,0828.0,5.02,000.00,031.3,025.7,000.0,039.0,031.3,35.1,0000.0,0009.84,0006.13,0005.61
2023-07-08 21:34:00,SystemResetWarning,0828.1,4.99,000.00,031.3,025.8,000.0,039.0,031.1,33.6,0000.0,0009.95,0006.16,0005.62
2023-07-08 21:35:00,SystemResetWarning,0828.3,4.98,000.00,031.2,026.1,000.0,039.0,031.1,32.8,0000.0,0010.00,0006.18,0005.61
2023-07-08 21:36:00,SystemResetWarning,0828.5,5.01,000.00,031.1,026.5,000.0,039.1,031.1,32.8,0000.2,0010.10,0006.22,0005.63
2023-07-08 21:37:00,SystemResetWarning,0828.6,4.99,000.00,031.1,026.8,000.0,039.1,031.2,35.1,0000.6,0010.04,0006.23,0005.66
2023-07-08 21:38:00,SystemResetWarning,0828.6,5.02,000.00,031.2,027.2,000.0,039.2,031.3,36.2,0000.2,0009.91,0006.31,0005.70
2023-07-08 21:39:00,SystemResetWarning,0828.6,5.00,000.00,031.5,027.5,000.0,039.2,031.5,36.2,-000.3,0010.24,0006.34,0005.71
2023-07-08 21:40:00,SystemResetWarning,0828.8,5.00,000.00,031.8,027.7,000.0,039.2,031.7,34.2,-000.6,0010.30,0006.41,0005.77
2023-07-08 21:41:00,SystemResetWarning,0829.0,4.98,000.00,032.1,027.9,000.0,039.3,031.8,34.1,-000.6,0010.38,0006.52,0005.86
2023-07-08 21:42:00,SystemResetWarning,0829.1,5.00,000.00,032.2,028.0,000.0,039.4,031.9,34.2,0000.1,0010.39,0006.60,0005.95
2023-07-08 21:43:00,SystemResetWarning,0829.2,5.00,000.00,032.3,026.8,000.0,039.3,031.8,33.6,0000.1,0010.68,0006.72,0006.05
2023-07-08 21:44:00,SystemResetWarning,0829.2,5.00,000.00,032.3,025.3,000.0,039.3,031.5,33.1,-000.2,0010.95,0006.78,0006.09
2023-07-08 21:45:00,SystemResetWarning,0829.3,5.00,000.00,032.3,025.0,000.0,039.3,031.3,32.8,-000.0,0010.87,0006.77,0006.09
2023-07-08 21:46:00,SystemResetWarning,0829.4,5.01,000.00,032.1,025.2,000.0,039.4,031.1,33.0,-000.6,0010.93,0006.78,0006.10
2023-07-08 21:47:00,SystemResetWarning,0829.4,5.01,000.00,031.9,025.6,000.0,039.5,031.1,33.1,-000.7,0011.42,0006.74,0006.09
2023-07-08 21:48:00,SystemResetWarning,0829.3,4.99,000.00,031.8,026.1,000.0,039.5,031.2,33.6,-000.1,0011.44,0006.72,0006.04
2023-07-08 21:49:00,SystemResetWarning,0829.3,4.99,000.00,031.8,026.5,000.0,039.6,031.2,33.5,0000.4,0011.71,0006.67,0006.02
2023-07-08 21:50:00,SystemResetWarning,0829.3,5.01,000.00,031.7,026.9,000.0,039.6,031.3,34.2,0000.8,0011.72,0006.62,0006.00
2023-07-08 21:51:00,SystemResetWarning,0829.2,5.01,000.00,031.7,027.2,000.0,039.6,031.4,34.5,0000.9,0012.18,0006.64,0006.00
2023-07-08 21:52:00,SystemResetWarning,0829.1,4.99,000.00,031.7,027.5,000.0,039.6,031.4,34.3,0000.6,0012.13,0006.64,0006.03
2023-07-08 21:53:00,SystemResetWarning,0829.1,4.99,000.00,031.6,027.7,000.0,039.7,031.5,35.5,0000.5,0012.16,0006.66,0006.05
2023-07-08 21:54:00,SystemResetWarning,0829.1,5.02,000.00,031.8,027.9,000.0,039.7,031.7,35.9,0001.1,0012.08,0006.65,0006.05
2023-07-08 21:55:00,SystemResetWarning,0829.1,4.99,000.00,032.1,028.1,000.0,039.7,031.8,34.0,0001.3,0011.89,0006.65,0006.03
2023-07-08 21:56:00,SystemResetWarning,0829.1,4.98,000.00,032.2,028.0,000.0,039.7,031.9,34.6,0001.5,0012.07,0006.66,0006.03
2023-07-08 21:57:00,SystemResetWarning,0829.1,5.03,000.00,032.4,026.6,000.0,039.6,031.8,33.2,0002.0,0012.51,0006.68,0006.05
2023-07-08 21:58:00,SystemResetWarning,0829.0,5.00,000.00,032.4,025.2,000.0,039.5,031.6,33.0,0001.6,0012.04,0006.72,0006.07
2023-07-08 21:59:00,SystemResetWarning,0829.0,5.00,000.00,032.4,025.0,000.0,039.5,031.4,32.8,0000.7,0012.01,0006.73,0006.09
